| time (UTC) | temp F | wind direction | speed MPH | gust MPH | rain 1hr in | rain 24hr in | rain mn in | humidity % | barometer mb |
| 20260904220005 | 90 | 80 | 5.0 | 10.0 | 0.00 | 0.00 | 0.00 | 59 | 1011.4 |
| 20260904215505 | 90 | 81 | 6.0 | 10.0 | 0.00 | 0.00 | 0.00 | 59 | 1011.5 |
| 20260904215005 | 90 | 80 | 6.0 | 10.0 | 0.00 | 0.02 | 0.00 | 59 | 1011.6 |
| 20260904214505 | 90 | 81 | 5.0 | 11.0 | 0.00 | 0.02 | 0.00 | 59 | 1011.6 |
| 20260904214026 | 90 | 82 | 6.0 | 11.0 | 0.00 | 0.02 | 0.00 | 59 | 1011.8 |
| 20260904213526 | 91 | 86 | 6.0 | 11.0 | 0.00 | 0.02 | 0.00 | 58 | 1011.8 |
| 20260904213005 | 92 | 89 | 4.0 | 11.0 | 0.00 | 0.02 | 0.00 | 57 | 1011.9 |
| 20260904212505 | 92 | 95 | 4.0 | 9.0 | 0.00 | 0.02 | 0.00 | 56 | 1011.9 |
| 20260904212005 | 92 | 105 | 3.0 | 9.0 | 0.00 | 0.02 | 0.00 | 55 | 1011.8 |
| 20260904211505 | 92 | 96 | 4.0 | 10.0 | 0.00 | 0.02 | 0.00 | 55 | 1012.0 |
| 20260904211005 | 92 | 81 | 6.0 | 10.0 | 0.00 | 0.02 | 0.00 | 56 | 1012.1 |
| 20260904210505 | 92 | 78 | 6.0 | 10.0 | 0.00 | 0.02 | 0.00 | 57 | 1012.1 |
| 20260904210006 | 92 | 83 | 5.0 | 10.0 | 0.00 | 0.02 | 0.00 | 57 | 1012.2 |
| 20260904205505 | 92 | 87 | 5.0 | 12.0 | 0.00 | 0.02 | 0.00 | 57 | 1012.3 |
| 20260904205026 | 92 | 91 | 5.0 | 12.0 | 0.00 | 0.02 | 0.00 | 57 | 1012.3 |
| 20260904204505 | 92 | 116 | 4.0 | 10.0 | 0.00 | 0.02 | 0.00 | 56 | 1012.4 |
| 20260904204005 | 92 | 149 | 3.0 | 8.0 | 0.00 | 0.02 | 0.00 | 55 | 1012.4 |
| 20260904203505 | 92 | 154 | 3.0 | 7.0 | 0.00 | 0.02 | 0.00 | 53 | 1012.5 |
| 20260904203027 | 92 | 156 | 3.0 | 8.0 | 0.00 | 0.02 | 0.00 | 52 | 1012.5 |
| 20260904202505 | 92 | 157 | 5.0 | 11.0 | 0.00 | 0.02 | 0.00 | 52 | 1012.6 |
| 20260904202005 | 92 | 146 | 4.0 | 11.0 | 0.00 | 0.02 | 0.00 | 51 | 1012.5 |
| 20260904201505 | 92 | 133 | 4.0 | 10.0 | 0.00 | 0.02 | 0.00 | 54 | 1012.6 |
| 20260904201005 | 92 | 156 | 4.0 | 10.0 | 0.00 | 0.02 | 0.00 | 55 | 1012.6 |
| 20260904200506 | 92 | 153 | 4.0 | 10.0 | 0.00 | 0.02 | 0.00 | 54 | 1012.6 |
| 20260904200005 | 92 | 134 | 4.0 | 9.0 | 0.00 | 0.02 | 0.00 | 55 | 1012.6 |
| 20260904195505 | 92 | 159 | 4.0 | 9.0 | 0.00 | 0.02 | 0.00 | 54 | 1012.6 |
| 20260904195005 | 93 | 188 | 4.0 | 14.0 | 0.00 | 0.02 | 0.00 | 54 | 1012.7 |
| 20260904194506 | 93 | 202 | 5.0 | 14.0 | 0.00 | 0.02 | 0.00 | 54 | 1012.7 |
| 20260904194005 | 93 | 196 | 4.0 | 11.0 | 0.00 | 0.02 | 0.00 | 54 | 1012.8 |
| 20260904193505 | 92 | 157 | 4.0 | 10.0 | 0.00 | 0.02 | 0.00 | 56 | 1012.8 |
| 20260904193005 | 93 | 162 | 4.0 | 10.0 | 0.00 | 0.02 | 0.00 | 56 | 1012.8 |
| 20260904192505 | 93 | 168 | 4.0 | 8.0 | 0.00 | 0.02 | 0.00 | 57 | 1012.9 |
| 20260904192005 | 92 | 181 | 4.0 | 10.0 | 0.00 | 0.02 | 0.00 | 56 | 1012.8 |
| 20260904191505 | 92 | 180 | 3.0 | 10.0 | 0.00 | 0.02 | 0.00 | 57 | 1012.9 |
| 20260904191005 | 92 | 144 | 3.0 | 9.0 | 0.00 | 0.02 | 0.00 | 58 | 1013.0 |
| 20260904190505 | 92 | 117 | 4.0 | 8.0 | 0.00 | 0.02 | 0.00 | 59 | 1013.1 |
| 20260904190026 | 91 | 143 | 4.0 | 10.0 | 0.00 | 0.02 | 0.00 | 61 | 1013.1 |
| 20260904185505 | 90 | 160 | 4.0 | 10.0 | 0.00 | 0.02 | 0.00 | 61 | 1013.2 |
| 20260904185005 | 90 | 125 | 5.0 | 10.0 | 0.00 | 0.02 | 0.00 | 61 | 1013.2 |
| 20260904184526 | 90 | 106 | 4.0 | 10.0 | 0.00 | 0.02 | 0.00 | 62 | 1013.3 |
| 20260904184005 | 90 | 128 | 4.0 | 10.0 | 0.00 | 0.02 | 0.00 | 62 | 1013.3 |
| 20260904183505 | 90 | 138 | 4.0 | 9.0 | 0.00 | 0.02 | 0.00 | 62 | 1013.4 |
| 20260904183005 | 91 | 151 | 4.0 | 9.0 | 0.00 | 0.02 | 0.00 | 61 | 1013.4 |
| 20260904182505 | 90 | 186 | 4.0 | 9.0 | 0.00 | 0.02 | 0.00 | 62 | 1013.5 |
| 20260904182005 | 90 | 190 | 4.0 | 8.0 | 0.00 | 0.02 | 0.00 | 61 | 1013.5 |
| 20260904181505 | 90 | 184 | 4.0 | 12.0 | 0.00 | 0.02 | 0.00 | 61 | 1013.5 |
| 20260904181005 | 91 | 192 | 5.0 | 12.0 | 0.00 | 0.02 | 0.00 | 62 | 1013.7 |
| 20260904180505 | 91 | 198 | 5.0 | 10.0 | 0.00 | 0.02 | 0.00 | 63 | 1013.7 |
| 20260904180005 | 90 | 201 | 6.0 | 9.0 | 0.00 | 0.02 | 0.00 | 64 | 1013.7 |
| 20260904175505 | 90 | 195 | 5.0 | 9.0 | 0.00 | 0.02 | 0.00 | 62 | 1013.8 |
| 20260904175005 | 90 | 166 | 3.0 | 9.0 | 0.00 | 0.02 | 0.00 | 65 | 1013.8 |
| 20260904174505 | 89 | 194 | 4.0 | 9.0 | 0.00 | 0.02 | 0.00 | 66 | 1013.9 |
| 20260904174005 | 89 | 191 | 5.0 | 11.0 | 0.00 | 0.02 | 0.00 | 66 | 1013.9 |
| 20260904173526 | 89 | 175 | 5.0 | 11.0 | 0.00 | 0.02 | 0.00 | 66 | 1013.9 |
| 20260904173005 | 89 | 172 | 5.0 | 8.0 | 0.00 | 0.02 | 0.00 | 68 | 1014.0 |
| 20260904172526 | 88 | 169 | 5.0 | 9.0 | 0.00 | 0.02 | 0.00 | 67 | 1014.1 |
| 20260904172005 | 88 | 171 | 4.0 | 9.0 | 0.00 | 0.02 | 0.00 | 70 | 1014.1 |
| 20260904171505 | 88 | 171 | 4.0 | 9.0 | 0.00 | 0.02 | 0.00 | 71 | 1014.2 |
| 20260904171005 | 87 | 148 | 4.0 | 8.0 | 0.00 | 0.02 | 0.00 | 70 | 1014.4 |
| 20260904170505 | 87 | 142 | 3.0 | 8.0 | 0.00 | 0.02 | 0.00 | 72 | 1014.3 |
| 20260904170026 | 86 | 182 | 3.0 | 11.0 | 0.00 | 0.02 | 0.00 | 73 | 1014.5 |
| 20260904165505 | 87 | 186 | 4.0 | 11.0 | 0.00 | 0.02 | 0.00 | 72 | 1014.5 |
| 20260904165005 | 86 | 192 | 3.0 | 10.0 | 0.00 | 0.02 | 0.00 | 73 | 1014.5 |
| 20260904164504 | 86 | 173 | 4.0 | 7.0 | 0.00 | 0.02 | 0.00 | 73 | 1014.5 |
| 20260904164004 | 86 | 160 | 3.0 | 7.0 | 0.00 | 0.02 | 0.00 | 74 | 1014.6 |
| 20260904163505 | 86 | 183 | 3.0 | 5.0 | 0.00 | 0.02 | 0.00 | 75 | 1014.7 |
| 20260904163005 | 85 | 203 | 3.0 | 7.0 | 0.00 | 0.02 | 0.00 | 76 | 1014.7 |
| 20260904162505 | 85 | 206 | 4.0 | 7.0 | 0.00 | 0.02 | 0.00 | 76 | 1014.7 |
| 20260904162005 | 85 | 192 | 4.0 | 7.0 | 0.00 | 0.02 | 0.00 | 76 | 1014.6 |
| 20260904161505 | 85 | 186 | 4.0 | 8.0 | 0.00 | 0.02 | 0.00 | 76 | 1014.7 |
| 20260904161005 | 84 | 197 | 4.0 | 8.0 | 0.00 | 0.02 | 0.00 | 78 | 1014.6 |
| 20260904160505 | 84 | 191 | 4.0 | 9.0 | 0.00 | 0.02 | 0.00 | 78 | 1014.5 |
| 20260904160005 | 84 | 178 | 4.0 | 9.0 | 0.00 | 0.02 | 0.00 | 78 | 1014.4 |
| 20260904155505 | 84 | 176 | 4.0 | 10.0 | 0.00 | 0.02 | 0.00 | 78 | 1014.4 |
| 20260904155005 | 84 | 173 | 3.0 | 10.0 | 0.00 | 0.02 | 0.00 | 79 | 1014.4 |
| 20260904154505 | 84 | 182 | 3.0 | 8.0 | 0.00 | 0.02 | 0.00 | 80 | 1014.3 |
| 20260904154005 | 84 | 181 | 4.0 | 8.0 | 0.00 | 0.02 | 0.00 | 79 | 1014.4 |
| 20260904153506 | 84 | 185 | 4.0 | 7.0 | 0.00 | 0.02 | 0.00 | 80 | 1014.3 |
| 20260904153005 | 84 | 193 | 4.0 | 7.0 | 0.00 | 0.02 | 0.00 | 81 | 1014.2 |
| 20260904152506 | 83 | 203 | 4.0 | 8.0 | 0.00 | 0.02 | 0.00 | 82 | 1014.1 |
| 20260904152026 | 83 | 197 | 4.0 | 8.0 | 0.00 | 0.02 | 0.00 | 82 | 1014.1 |
| 20260904151526 | 83 | 168 | 3.0 | 6.0 | 0.00 | 0.02 | 0.00 | 83 | 1014.1 |
| 20260904151004 | 83 | 156 | 2.0 | 5.0 | 0.00 | 0.02 | 0.00 | 84 | 1014.1 |
| 20260904150505 | 82 | 166 | 3.0 | 8.0 | 0.00 | 0.02 | 0.00 | 84 | 1014.1 |
| 20260904150005 | 82 | 185 | 3.0 | 8.0 | 0.00 | 0.02 | 0.00 | 85 | 1014.0 |
| 20260904145505 | 82 | 189 | 3.0 | 8.0 | 0.00 | 0.02 | 0.00 | 85 | 1014.1 |
| 20260904145005 | 82 | 178 | 3.0 | 8.0 | 0.00 | 0.02 | 0.00 | 86 | 1014.2 |
| 20260904144505 | 82 | 176 | 3.0 | 6.0 | 0.00 | 0.02 | 0.00 | 86 | 1014.1 |
| 20260904144005 | 81 | 175 | 3.0 | 7.0 | 0.00 | 0.02 | 0.00 | 87 | 1014.1 |
| 20260904143505 | 81 | 177 | 2.0 | 7.0 | 0.00 | 0.02 | 0.00 | 87 | 1014.1 |
| 20260904143004 | 81 | 188 | 2.0 | 5.0 | 0.00 | 0.02 | 0.00 | 88 | 1014.1 |
| 20260904142505 | 81 | 184 | 2.0 | 4.0 | 0.00 | 0.02 | 0.00 | 88 | 1014.1 |
| 20260904142004 | 81 | 181 | 2.0 | 4.0 | 0.00 | 0.02 | 0.00 | 88 | 1014.2 |
| 20260904141526 | 80 | 175 | 2.0 | 4.0 | 0.00 | 0.02 | 0.00 | 89 | 1014.1 |
| 20260904141026 | 80 | 174 | 2.0 | 5.0 | 0.00 | 0.02 | 0.00 | 89 | 1014.1 |
| 20260904140505 | 80 | 177 | 1.0 | 5.0 | 0.00 | 0.02 | 0.00 | 89 | 1014.0 |
| 20260904140026 | 80 | 165 | 1.0 | 3.0 | 0.00 | 0.02 | 0.00 | 90 | 1014.0 |
| 20260904135504 | 80 | 159 | 1.0 | 3.0 | 0.00 | 0.02 | 0.00 | 90 | 1014.0 |
| 20260904135005 | 80 | 151 | 2.0 | 4.0 | 0.00 | 0.02 | 0.00 | 90 | 1013.9 |
| 20260904134505 | 79 | 152 | 2.0 | 5.0 | 0.00 | 0.02 | 0.00 | 90 | 1013.9 |
| 20260904134005 | 79 | 154 | 2.0 | 5.0 | 0.00 | 0.02 | 0.00 | 90 | 1013.8 |
| 20260904133505 | 79 | 149 | 2.0 | 5.0 | 0.00 | 0.02 | 0.00 | 91 | 1013.8 |
| 20260904133005 | 79 | 145 | 2.0 | 5.0 | 0.00 | 0.02 | 0.00 | 91 | 1013.7 |
| 20260904132505 | 79 | 132 | 2.0 | 4.0 | 0.00 | 0.02 | 0.00 | 91 | 1013.8 |
| 20260904132004 | 79 | 118 | 1.0 | 3.0 | 0.00 | 0.02 | 0.00 | 91 | 1013.7 |
| 20260904131504 | 79 | 112 | 1.0 | 3.0 | 0.00 | 0.02 | 0.00 | 91 | 1013.7 |
| 20260904131025 | 78 | 100 | 1.0 | 3.0 | 0.00 | 0.02 | 0.00 | 91 | 1013.7 |
| 20260904130504 | 78 | 94 | 1.0 | 3.0 | 0.00 | 0.02 | 0.00 | 91 | 1013.7 |
| 20260904130005 | 78 | 94 | 1.0 | 2.0 | 0.00 | 0.02 | 0.00 | 91 | 1013.6 |
| 20260904125505 | 78 | 94 | 1.0 | 3.0 | 0.00 | 0.02 | 0.00 | 91 | 1013.6 |
| 20260904125004 | 78 | 94 | 1.0 | 3.0 | 0.00 | 0.02 | 0.00 | 91 | 1013.6 |
| 20260904124504 | 78 | 92 | 2.0 | 4.0 | 0.00 | 0.02 | 0.00 | 91 | 1013.6 |
| 20260904124004 | 78 | 90 | 2.0 | 6.0 | 0.00 | 0.02 | 0.00 | 91 | 1013.5 |
| 20260904123505 | 78 | 91 | 2.0 | 6.0 | 0.00 | 0.02 | 0.00 | 91 | 1013.4 |
| 20260904123005 | 78 | 96 | 1.0 | 3.0 | 0.00 | 0.02 | 0.00 | 91 | 1013.4 |
| 20260904122525 | 78 | 94 | 1.0 | 4.0 | 0.00 | 0.02 | 0.00 | 91 | 1013.4 |
| 20260904122025 | 78 | 95 | 1.0 | 4.0 | 0.00 | 0.02 | 0.00 | 91 | 1013.4 |
| 20260904121505 | 78 | 98 | 1.0 | 4.0 | 0.00 | 0.02 | 0.00 | 91 | 1013.3 |
| 20260904121027 | 78 | 95 | 1.0 | 7.0 | 0.00 | 0.02 | 0.00 | 91 | 1013.3 |
| 20260904120505 | 78 | 92 | 2.0 | 7.0 | 0.00 | 0.02 | 0.00 | 91 | 1013.3 |
| 20260904120026 | 78 | 93 | 2.0 | 5.0 | 0.00 | 0.02 | 0.00 | 91 | 1013.2 |
| 20260904115526 | 78 | 94 | 2.0 | 4.0 | 0.00 | 0.02 | 0.00 | 91 | 1013.2 |
| 20260904115005 | 78 | 96 | 1.0 | 4.0 | 0.00 | 0.02 | 0.00 | 91 | 1013.1 |
| 20260904114505 | 78 | 95 | 1.0 | 4.0 | 0.00 | 0.02 | 0.00 | 91 | 1013.0 |
| 20260904114025 | 78 | 93 | 2.0 | 4.0 | 0.00 | 0.02 | 0.00 | 91 | 1013.0 |
| 20260904113506 | 78 | 90 | 2.0 | 4.0 | 0.00 | 0.02 | 0.00 | 91 | 1012.9 |
| 20260904113005 | 78 | 89 | 2.0 | 4.0 | 0.00 | 0.02 | 0.00 | 91 | 1012.8 |
| 20260904112505 | 78 | 88 | 2.0 | 4.0 | 0.00 | 0.02 | 0.00 | 91 | 1012.9 |
| 20260904112025 | 78 | 88 | 2.0 | 4.0 | 0.00 | 0.02 | 0.00 | 91 | 1012.9 |
| 20260904111505 | 78 | 87 | 2.0 | 4.0 | 0.00 | 0.02 | 0.00 | 91 | 1012.9 |
| 20260904111026 | 78 | 81 | 2.0 | 4.0 | 0.00 | 0.02 | 0.00 | 91 | 1012.9 |
| 20260904110505 | 78 | 77 | 2.0 | 3.0 | 0.00 | 0.02 | 0.00 | 91 | 1012.8 |
| 20260904110005 | 78 | 78 | 1.0 | 3.0 | 0.00 | 0.02 | 0.00 | 91 | 1012.8 |
| 20260904105505 | 78 | 80 | 0.0 | 3.0 | 0.00 | 0.02 | 0.00 | 91 | 1012.9 |
| 20260904105004 | 77 | 80 | 1.0 | 3.0 | 0.00 | 0.02 | 0.00 | 91 | 1012.9 |
| 20260904104505 | 77 | 80 | 2.0 | 3.0 | 0.00 | 0.02 | 0.00 | 91 | 1012.8 |
| 20260904104004 | 77 | 79 | 1.0 | 3.0 | 0.00 | 0.02 | 0.00 | 91 | 1012.7 |
| 20260904103504 | 78 | 77 | 0.0 | 3.0 | 0.00 | 0.02 | 0.00 | 91 | 1012.7 |
| 20260904103005 | 78 | 0 | 0.0 | 0.0 | 0.00 | 0.02 | 0.00 | 91 | 1012.7 |
| 20260904102525 | 78 | 0 | 0.0 | 0.0 | 0.00 | 0.02 | 0.00 | 91 | 1012.6 |
| 20260904102026 | 78 | 0 | 0.0 | 0.0 | 0.00 | 0.02 | 0.00 | 91 | 1012.7 |
| 20260904101504 | 78 | 0 | 0.0 | 0.0 | 0.00 | 0.02 | 0.00 | 91 | 1012.6 |
| 20260904101005 | 78 | 0 | 0.0 | 0.0 | 0.00 | 0.02 | 0.00 | 91 | 1012.6 |
| 20260904100527 | 78 | 0 | 0.0 | 0.0 | 0.00 | 0.02 | 0.00 | 90 | 1012.6 |
| 20260904100005 | 78 | 0 | 0.0 | 0.0 | 0.00 | 0.02 | 0.00 | 90 | 1012.5 |
| 20260904095525 | 78 | 0 | 0.0 | 0.0 | 0.00 | 0.02 | 0.00 | 90 | 1012.4 |
| 20260904095004 | 78 | 0 | 0.0 | 0.0 | 0.00 | 0.02 | 0.00 | 90 | 1012.4 |
| 20260904094504 | 78 | 0 | 0.0 | 0.0 | 0.00 | 0.02 | 0.00 | 90 | 1012.4 |
| 20260904094004 | 78 | 0 | 0.0 | 0.0 | 0.00 | 0.02 | 0.00 | 90 | 1012.5 |
| 20260904093504 | 78 | 0 | 0.0 | 0.0 | 0.00 | 0.02 | 0.00 | 90 | 1012.4 |
| 20260904093004 | 78 | 0 | 0.0 | 0.0 | 0.00 | 0.02 | 0.00 | 90 | 1012.4 |
| 20260904092526 | 78 | 0 | 0.0 | 0.0 | 0.00 | 0.02 | 0.00 | 90 | 1012.3 |
| 20260904092004 | 78 | 0 | 0.0 | 0.0 | 0.00 | 0.02 | 0.00 | 89 | 1012.3 |
| 20260904091505 | 78 | 0 | 0.0 | 0.0 | 0.00 | 0.02 | 0.00 | 89 | 1012.3 |
| 20260904091004 | 78 | 0 | 0.0 | 0.0 | 0.00 | 0.02 | 0.00 | 89 | 1012.3 |
| 20260904090505 | 78 | 0 | 0.0 | 0.0 | 0.00 | 0.02 | 0.00 | 89 | 1012.3 |
| 20260904090026 | 78 | 0 | 0.0 | 0.0 | 0.00 | 0.02 | 0.00 | 89 | 1012.3 |
| 20260904085505 | 78 | 0 | 0.0 | 0.0 | 0.00 | 0.02 | 0.00 | 89 | 1012.3 |
| 20260904085026 | 78 | 0 | 0.0 | 0.0 | 0.00 | 0.02 | 0.00 | 89 | 1012.3 |
| 20260904084526 | 78 | 0 | 0.0 | 0.0 | 0.00 | 0.02 | 0.00 | 89 | 1012.3 |
| 20260904084005 | 78 | 0 | 0.0 | 0.0 | 0.00 | 0.02 | 0.00 | 89 | 1012.3 |
| 20260904083504 | 78 | 0 | 0.0 | 0.0 | 0.00 | 0.02 | 0.00 | 89 | 1012.2 |
| 20260904083005 | 79 | 0 | 0.0 | 0.0 | 0.00 | 0.02 | 0.00 | 88 | 1012.2 |
| 20260904082504 | 79 | 0 | 0.0 | 0.0 | 0.00 | 0.02 | 0.00 | 88 | 1012.3 |
| 20260904082026 | 79 | 0 | 0.0 | 0.0 | 0.00 | 0.02 | 0.00 | 88 | 1012.2 |
| 20260904081504 | 79 | 0 | 0.0 | 0.0 | 0.00 | 0.02 | 0.00 | 88 | 1012.4 |
| 20260904081005 | 79 | 0 | 0.0 | 0.0 | 0.00 | 0.02 | 0.00 | 88 | 1012.4 |
| 20260904080504 | 79 | 0 | 0.0 | 0.0 | 0.00 | 0.02 | 0.00 | 88 | 1012.5 |
| 20260904080004 | 79 | 0 | 0.0 | 0.0 | 0.00 | 0.02 | 0.00 | 87 | 1012.5 |
| 20260904075504 | 79 | 0 | 0.0 | 0.0 | 0.00 | 0.02 | 0.00 | 87 | 1012.6 |
| 20260904075005 | 79 | 0 | 0.0 | 0.0 | 0.00 | 0.02 | 0.00 | 87 | 1012.5 |
| 20260904074505 | 79 | 0 | 0.0 | 0.0 | 0.00 | 0.02 | 0.00 | 87 | 1012.5 |
| 20260904074004 | 79 | 0 | 0.0 | 0.0 | 0.00 | 0.02 | 0.00 | 87 | 1012.5 |
| 20260904073504 | 80 | 0 | 0.0 | 0.0 | 0.00 | 0.02 | 0.00 | 87 | 1012.6 |
| 20260904073004 | 80 | 0 | 0.0 | 0.0 | 0.00 | 0.02 | 0.00 | 87 | 1012.8 |
| 20260904072504 | 80 | 0 | 0.0 | 0.0 | 0.00 | 0.02 | 0.00 | 87 | 1012.7 |
| 20260904072005 | 80 | 164 | 0.0 | 1.0 | 0.00 | 0.02 | 0.00 | 87 | 1012.7 |
| 20260904071505 | 80 | 164 | 0.0 | 2.0 | 0.00 | 0.02 | 0.00 | 86 | 1012.7 |
| 20260904071005 | 80 | 164 | 0.0 | 2.0 | 0.00 | 0.02 | 0.00 | 86 | 1012.7 |
| 20260904070505 | 80 | 164 | 0.0 | 2.0 | 0.00 | 0.02 | 0.00 | 86 | 1012.7 |
| 20260904070004 | 80 | 164 | 0.0 | 4.0 | 0.00 | 0.02 | 0.00 | 86 | 1012.8 |
| 20260904065504 | 80 | 175 | 1.0 | 4.0 | 0.00 | 0.02 | 0.00 | 86 | 1012.7 |
| 20260904065006 | 80 | 173 | 1.0 | 4.0 | 0.00 | 0.02 | 0.00 | 86 | 1012.8 |
| 20260904064505 | 80 | 166 | 2.0 | 4.0 | 0.00 | 0.02 | 0.00 | 86 | 1012.7 |
| 20260904064004 | 80 | 163 | 2.0 | 5.0 | 0.00 | 0.02 | 0.00 | 86 | 1012.9 |
| 20260904063505 | 80 | 166 | 2.0 | 5.0 | 0.00 | 0.02 | 0.00 | 85 | 1012.9 |
| 20260904063005 | 81 | 166 | 2.0 | 5.0 | 0.00 | 0.02 | 0.00 | 85 | 1012.9 |
| 20260904062504 | 81 | 164 | 2.0 | 5.0 | 0.00 | 0.02 | 0.00 | 85 | 1013.0 |
| 20260904062005 | 81 | 167 | 2.0 | 5.0 | 0.00 | 0.02 | 0.00 | 85 | 1013.1 |
| 20260904061526 | 81 | 172 | 2.0 | 5.0 | 0.00 | 0.02 | 0.00 | 85 | 1013.0 |
| 20260904061025 | 81 | 171 | 2.0 | 6.0 | 0.00 | 0.02 | 0.00 | 85 | 1013.1 |
| 20260904060505 | 81 | 165 | 3.0 | 6.0 | 0.00 | 0.02 | 0.00 | 84 | 1013.0 |
| 20260904060005 | 81 | 160 | 4.0 | 7.0 | 0.00 | 0.02 | 0.00 | 84 | 1013.0 |
| 20260904055504 | 81 | 159 | 4.0 | 9.0 | 0.00 | 0.02 | 0.00 | 84 | 1012.9 |
| 20260904055004 | 81 | 164 | 4.0 | 9.0 | 0.00 | 0.02 | 0.00 | 84 | 1013.0 |
| 20260904054504 | 81 | 168 | 4.0 | 9.0 | 0.00 | 0.02 | 0.00 | 83 | 1013.0 |
| 20260904054005 | 81 | 164 | 4.0 | 9.0 | 0.00 | 0.02 | 0.00 | 83 | 1013.0 |
| 20260904053504 | 82 | 167 | 4.0 | 8.0 | 0.00 | 0.02 | 0.00 | 83 | 1013.1 |
| 20260904053005 | 82 | 174 | 3.0 | 6.0 | 0.00 | 0.02 | 0.00 | 83 | 1013.1 |
| 20260904052505 | 82 | 165 | 3.0 | 7.0 | 0.00 | 0.02 | 0.00 | 82 | 1013.1 |
| 20260904052004 | 82 | 157 | 4.0 | 10.0 | 0.00 | 0.02 | 0.00 | 82 | 1013.1 |
| 20260904051526 | 82 | 159 | 4.0 | 10.0 | 0.00 | 0.02 | 0.00 | 82 | 1013.0 |
| 20260904051025 | 82 | 163 | 4.0 | 9.0 | 0.00 | 0.02 | 0.00 | 82 | 1013.0 |
| 20260904050504 | 82 | 161 | 4.0 | 11.0 | 0.00 | 0.02 | 0.00 | 81 | 1012.9 |
| 20260904050005 | 82 | 168 | 4.0 | 11.0 | 0.00 | 0.02 | 0.00 | 81 | 1012.8 |
| 20260904045505 | 82 | 176 | 4.0 | 9.0 | 0.00 | 0.02 | 0.02 | 81 | 1012.7 |
| 20260904045026 | 82 | 169 | 5.0 | 10.0 | 0.00 | 0.02 | 0.02 | 81 | 1012.7 |
| 20260904044504 | 82 | 167 | 5.0 | 10.0 | 0.00 | 0.02 | 0.02 | 80 | 1012.6 |
| 20260904044005 | 82 | 174 | 5.0 | 13.0 | 0.00 | 0.02 | 0.02 | 80 | 1012.4 |
| 20260904043504 | 82 | 164 | 6.0 | 13.0 | 0.00 | 0.02 | 0.02 | 79 | 1012.5 |
| 20260904043025 | 82 | 157 | 6.0 | 11.0 | 0.00 | 0.02 | 0.02 | 79 | 1012.4 |
| 20260904042504 | 82 | 158 | 5.0 | 9.0 | 0.00 | 0.02 | 0.02 | 78 | 1012.4 |
| 20260904042004 | 82 | 157 | 5.0 | 9.0 | 0.00 | 0.02 | 0.02 | 78 | 1012.4 |
| 20260904041504 | 83 | 155 | 5.0 | 11.0 | 0.00 | 0.02 | 0.02 | 77 | 1012.4 |
| 20260904041004 | 83 | 156 | 6.0 | 11.0 | 0.00 | 0.02 | 0.02 | 77 | 1012.4 |
| 20260904040504 | 83 | 160 | 6.0 | 13.0 | 0.00 | 0.02 | 0.02 | 77 | 1012.4 |
| 20260904040005 | 83 | 155 | 7.0 | 13.0 | 0.00 | 0.02 | 0.02 | 77 | 1012.5 |
| 20260904035525 | 83 | 149 | 7.0 | 14.0 | 0.00 | 0.02 | 0.02 | 76 | 1012.4 |
| 20260904035005 | 84 | 151 | 7.0 | 14.0 | 0.00 | 0.02 | 0.02 | 75 | 1012.3 |
| 20260904034505 | 84 | 151 | 7.0 | 13.0 | 0.00 | 0.02 | 0.02 | 74 | 1012.3 |
| 20260904034004 | 84 | 150 | 7.0 | 12.0 | 0.00 | 0.02 | 0.02 | 73 | 1012.2 |
| 20260904033504 | 84 | 148 | 7.0 | 12.0 | 0.00 | 0.02 | 0.02 | 72 | 1012.3 |
| 20260904033005 | 84 | 145 | 6.0 | 12.0 | 0.00 | 0.02 | 0.02 | 72 | 1012.2 |
| 20260904032525 | 84 | 146 | 7.0 | 12.0 | 0.00 | 0.02 | 0.02 | 71 | 1012.1 |
| 20260904032004 | 85 | 147 | 8.0 | 14.0 | 0.00 | 0.02 | 0.02 | 70 | 1012.1 |
| 20260904031525 | 85 | 147 | 8.0 | 14.0 | 0.00 | 0.02 | 0.02 | 70 | 1012.1 |
| 20260904031004 | 85 | 145 | 8.0 | 14.0 | 0.00 | 0.02 | 0.02 | 69 | 1011.8 |
| 20260904030505 | 85 | 146 | 8.0 | 14.0 | 0.00 | 0.02 | 0.02 | 69 | 1011.8 |
| 20260904030005 | 85 | 145 | 8.0 | 13.0 | 0.00 | 0.02 | 0.02 | 67 | 1011.7 |
| 20260904025504 | 86 | 139 | 7.0 | 13.0 | 0.00 | 0.02 | 0.02 | 66 | 1011.8 |
| 20260904025004 | 86 | 141 | 7.0 | 13.0 | 0.00 | 0.02 | 0.02 | 64 | 1011.6 |
| 20260904024504 | 86 | 140 | 7.0 | 14.0 | 0.00 | 0.02 | 0.02 | 62 | 1011.6 |
| 20260904024025 | 86 | 136 | 6.0 | 14.0 | 0.00 | 0.02 | 0.02 | 62 | 1011.4 |
| 20260904023504 | 86 | 137 | 6.0 | 14.0 | 0.00 | 0.02 | 0.02 | 62 | 1011.4 |
| 20260904023025 | 86 | 140 | 6.0 | 14.0 | 0.00 | 0.02 | 0.02 | 62 | 1011.2 |
| 20260904022504 | 86 | 141 | 6.0 | 11.0 | 0.00 | 0.02 | 0.02 | 63 | 1011.1 |
| 20260904022025 | 86 | 135 | 5.0 | 11.0 | 0.00 | 0.02 | 0.02 | 63 | 1011.1 |
| 20260904021504 | 86 | 129 | 5.0 | 9.0 | 0.00 | 0.02 | 0.02 | 64 | 1011.0 |
| 20260904021005 | 86 | 130 | 5.0 | 9.0 | 0.00 | 0.02 | 0.02 | 65 | 1010.9 |
| 20260904020504 | 86 | 131 | 4.0 | 9.0 | 0.00 | 0.02 | 0.02 | 66 | 1010.7 |
| 20260904020004 | 86 | 127 | 3.0 | 9.0 | 0.00 | 0.02 | 0.02 | 68 | 1010.7 |
| 20260904015525 | 86 | 120 | 3.0 | 7.0 | 0.00 | 0.02 | 0.02 | 68 | 1010.6 |
| 20260904015005 | 86 | 107 | 3.0 | 7.0 | 0.00 | 0.02 | 0.02 | 69 | 1010.6 |
| 20260904014504 | 86 | 107 | 2.0 | 6.0 | 0.00 | 0.02 | 0.02 | 68 | 1010.7 |
| 20260904014005 | 86 | 112 | 2.0 | 5.0 | 0.00 | 0.02 | 0.02 | 68 | 1010.6 |
| 20260904013504 | 86 | 114 | 2.0 | 7.0 | 0.00 | 0.02 | 0.02 | 67 | 1010.5 |
| 20260904013004 | 86 | 117 | 3.0 | 8.0 | 0.00 | 0.02 | 0.02 | 67 | 1010.6 |
| 20260904012504 | 87 | 120 | 3.0 | 8.0 | 0.00 | 0.02 | 0.02 | 66 | 1010.5 |
| 20260904012005 | 87 | 126 | 3.0 | 6.0 | 0.00 | 0.02 | 0.02 | 65 | 1010.4 |
| 20260904011504 | 87 | 134 | 3.0 | 6.0 | 0.00 | 0.02 | 0.02 | 65 | 1010.3 |
| 20260904011005 | 87 | 136 | 3.0 | 5.0 | 0.00 | 0.02 | 0.02 | 64 | 1010.2 |
| 20260904010504 | 87 | 135 | 3.0 | 7.0 | 0.00 | 0.02 | 0.02 | 64 | 1010.2 |
| 20260904010006 | 87 | 133 | 3.0 | 8.0 | 0.00 | 0.02 | 0.02 | 63 | 1010.2 |
| 20260904005504 | 88 | 128 | 3.0 | 8.0 | 0.00 | 0.02 | 0.02 | 63 | 1010.2 |
| 20260904005004 | 88 | 129 | 4.0 | 12.0 | 0.00 | 0.02 | 0.02 | 63 | 1010.1 |
| 20260904004504 | 88 | 136 | 5.0 | 14.0 | 0.00 | 0.02 | 0.02 | 62 | 1010.0 |
| 20260904004004 | 88 | 126 | 5.0 | 14.0 | 0.00 | 0.02 | 0.02 | 61 | 1010.0 |
| 20260904003504 | 89 | 110 | 4.0 | 12.0 | 0.00 | 0.02 | 0.02 | 61 | 1010.0 |
| 20260904003004 | 89 | 108 | 4.0 | 10.0 | 0.00 | 0.02 | 0.02 | 61 | 1009.9 |
| 20260904002525 | 89 | 108 | 5.0 | 13.0 | 0.00 | 0.02 | 0.02 | 61 | 1010.0 |
| 20260904002004 | 89 | 107 | 6.0 | 13.0 | 0.00 | 0.02 | 0.02 | 62 | 1009.9 |
| 20260904001504 | 89 | 103 | 6.0 | 13.0 | 0.00 | 0.02 | 0.02 | 63 | 1010.1 |
| 20260904001004 | 89 | 102 | 7.0 | 15.0 | 0.00 | 0.02 | 0.02 | 62 | 1010.1 |
| 20260904000504 | 90 | 99 | 7.0 | 15.0 | 0.00 | 0.02 | 0.02 | 61 | 1009.9 |
| 20260904000004 | 90 | 95 | 8.0 | 14.0 | 0.00 | 0.02 | 0.02 | 61 | 1009.9 |
| 20260903235504 | 90 | 92 | 8.0 | 15.0 | 0.00 | 0.02 | 0.02 | 60 | 1009.8 |
| 20260903235025 | 91 | 89 | 10.0 | 15.0 | 0.00 | 0.02 | 0.02 | 60 | 1009.6 |
| 20260903234504 | 91 | 87 | 12.0 | 19.0 | 0.00 | 0.02 | 0.02 | 59 | 1009.6 |
| 20260903234004 | 92 | 85 | 12.0 | 19.0 | 0.00 | 0.02 | 0.02 | 58 | 1009.4 |
| 20260903233526 | 92 | 84 | 12.0 | 19.0 | 0.00 | 0.02 | 0.02 | 56 | 1009.4 |
| 20260903233004 | 94 | 87 | 10.0 | 20.0 | 0.00 | 0.02 | 0.02 | 53 | 1009.4 |
| 20260903232505 | 95 | 91 | 9.0 | 19.0 | 0.00 | 0.02 | 0.02 | 50 | 1009.3 |
| 20260903232025 | 95 | 91 | 8.0 | 16.0 | 0.00 | 0.02 | 0.02 | 50 | 1009.2 |
| 20260903231505 | 95 | 88 | 8.0 | 15.0 | 0.00 | 0.02 | 0.02 | 49 | 1009.1 |
| 20260903231004 | 95 | 87 | 10.0 | 17.0 | 0.00 | 0.02 | 0.02 | 50 | 1009.1 |
| 20260903230525 | 94 | 92 | 7.0 | 17.0 | 0.00 | 0.02 | 0.02 | 50 | 1009.0 |
| 20260903230004 | 94 | 119 | 5.0 | 11.0 | 0.00 | 0.02 | 0.02 | 52 | 1009.1 |
| 20260903225525 | 94 | 120 | 7.0 | 14.0 | 0.00 | 0.02 | 0.02 | 53 | 1009.2 |
| 20260903225006 | 95 | 105 | 7.0 | 14.0 | 0.02 | 0.02 | 0.02 | 52 | 1009.4 |
| 20260903224505 | 95 | 90 | 6.0 | 14.0 | 0.02 | 0.02 | 0.02 | 52 | 1009.2 |
| 20260903224004 | 94 | 81 | 5.0 | 9.0 | 0.02 | 0.02 | 0.02 | 54 | 1009.0 |
| 20260903223505 | 93 | 78 | 4.0 | 9.0 | 0.02 | 0.02 | 0.02 | 53 | 1008.9 |
| 20260903223005 | 92 | 56 | 3.0 | 9.0 | 0.02 | 0.02 | 0.02 | 55 | 1009.0 |
| 20260903222505 | 92 | 8 | 2.0 | 7.0 | 0.02 | 0.02 | 0.02 | 55 | 1009.1 |
| 20260903222004 | 91 | 3 | 3.0 | 9.0 | 0.02 | 0.02 | 0.02 | 58 | 1009.1 |
| 20260903221504 | 91 | 337 | 4.0 | 9.0 | 0.02 | 0.02 | 0.02 | 58 | 1009.0 |
| 20260903221004 | 90 | 282 | 4.0 | 9.0 | 0.02 | 0.02 | 0.02 | 58 | 1009.0 |
| 20260903220525 | 90 | 271 | 5.0 | 9.0 | 0.02 | 0.02 | 0.02 | 61 | 1009.0 |